Showing default

OPS 6026 (DMSP 4A F1), 2418

Orbit data source: Space-Track

OPS 6026 (DMSP 4A F1), 2418 is a payload satellite owned by USAF SSD (US) in SSO that was launched on Fri, 16 Sep 1966 UTC via a THOR BURNER 2 launch vehicle from the Air Force Western Test Range (AFWTR). Payload-class satellites include a variety of spacecraft equipped with specific instruments for various scientific and technological missions. These include communications satellites like Starlink; space stations such as the ISS; scientific satellites like the Hubble; Earth observation satellites from companies like Planet Labs, Umbra, and HawkEye 360; GPS; miniature CubeSats for education and research; and military/defense satellites.

Loading next visibility...
Identifier
2418, 1966-082A
Orbit
SSO
Country
Flag of USUS
Related business
Manufacturer
RCA/East Windsor
Mission
Non-operational spacecraft
Bus & Motor
DMSP BLOCK 4A, Unknown motor
Mass
79 kg wet, 79 kg dry
Launch date (UTC)
1966-09-16 (59 years ago)
Launch vehicle
THOR BURNER 2
Launch site
Air Force Western Test Range (AFWTR)
Object type
Payload
Rocket body
Debris
Shape & HBR
Unknown
Radar Cross Section
Medium (>0.1 m² and <1 m²)

Expand to show TLE details & history
Last TLE update: 21 hours ago

TLE from 21 hours ago
0 OPS 6026 (DMSP 4A F1)
1 02418U 66082A   26062.40944742  .00000324  00000-0  10073-3 0  9990
2 02418  98.3238 217.7065 0115056 345.2648  14.5199 14.43823443 97021
Epoch: 2026-03-03T09:49Z
TLE epoch observation values (Epoch: 2026-03-03T09:49:36.257Z)
Latitude
0.00004°
Longitude
-90.8835°
Altitude
669.549 km
Speed
7.564 km/s
True Right ascension
14h 30m 49s
True Declination
0° 00' 00"
Sunlit
Object was in full shadow at epoch
Visualization orbit readout
Latitude
Unknown
Longitude
Unknown
Altitude
Unknown
Speed
Unknown
Apparent Right ascension
Unknown
Apparent Declination
Unknown
Sunlit
N/A
Visualization observer readout
Local Sidereal Time
10:42:53
Azimuth
Unknown
Elevation
Unknown
Doppler factor
Unknown
Orbital elements
Apogee altitude
824.935 km
Perigee altitude
661.069 km
Semi-major axis
7,121.139 km
Eccentricity
0.01151
Inclination
98.3238°
RAAN
217.7065°
Arg. of periapsis
345.2648°
True anomaly
14.85512°
Mean anomaly
14.5199°
Eccentric anomaly
14.68704°
Mean motion
3.61176 °/min
Orbital period
99.67 mins
BSTAR
0.00010073
Loading maneuver chart data...
Computing Atmospheric mass density...
Loading historical data...
Loading historical data...
Loading historical data...
Loading historical data...
Loading historical data...
Loading historical data...
Loading historical data...
Other satellites on launch #82 in the year 1966 (1966-09-16 UTC)

Documentation

Showing up to 5 results
|